Olympia, WA

2:49 PM PDT on July 24, 2017 (GMT -0700)
Olympia

Weather History for KOLM - January, 2013

Change the Weather History Date:

Wednesday, January 9, 2013

  Actual Average Record
Temperature  
Mean Temperature 42 °F 39 °F  
Max Temperature 50 °F 45 °F 57 °F (2010)
Min Temperature 33 °F 34 °F 6 °F (1974)
Degree Days  
Heating Degree Days 23 26  
Month to date heating degree days 230 234  
Since 1 July heating degree days 2393 2504  
Cooling Degree Days 0 0  
Month to date cooling degree days 0 0  
Year to date cooling degree days 0 0  
Moisture  
Dew Point 39 °F    
Average Humidity 90    
Maximum Humidity 100    
Minimum Humidity 79    
Precipitation  
Precipitation 1.03 in 0.27 in 3.82 in (1990)
Month to date precipitation 2.75 2.31  
Year to date precipitation 2.75 2.31  
Sea Level Pressure  
Sea Level Pressure 29.82 in    
Wind  
Wind Speed 9 mph (SSW)    
Max Wind Speed 16 mph    
Max Gust Speed 24 mph    
Visibility 7 miles    
Events Rain    
T = Trace of Precipitation, MM = Missing Value Source: NWS Daily Summary

Daily Weather History Graph

Daily Weather History Graph

Search for Another Location

Airport or City:

Trip Planner

Search our weather history database for the weather conditions in past years. The results will help you decide how hot, cold, wet, or windy it might be!

Date:

Astronomy

Jan. 09, 2013 Rise Set
Actual Time 7:55 AM PST 4:42 PM PST
Civil Twilight 7:21 AM PST 5:17 PM PST
Nautical Twilight 6:42 AM PST 5:55 PM PST
Astronomical Twilight 6:06 AM PST 6:32 PM PST
Moon 5:41 AM PST (1/9) 2:49 PM PST (1/9)
Length of Visible Light 9h 56m
Length of Day
8h 46m
Waning Crescent, 6% of the Moon is Illuminated
Jan 9
Waning Crescent
Jan 11
New
Jan 18
First Quarter
Jan 26
Full
Feb 3
Last Quarter

Hourly Weather History & Observations

Time (PST) Temp. Windchill Dew Point Humidity Pressure Visibility Wind Dir Wind Speed Gust Speed Precip Events Conditions
12:02 AM 48.9 °F - 48.0 °F 97% 29.77 in 2.5 mi SSW 11.5 mph - 0.03 in Rain Rain
12:28 AM 48.9 °F - 48.0 °F 97% 29.78 in 2.0 mi SSW 11.5 mph 20.7 mph 0.14 in Rain Rain
12:45 AM 48.9 °F - 48.0 °F 97% 29.78 in 3.0 mi SSW 10.4 mph - 0.19 in Rain Rain
12:54 AM 48.9 °F - 48.0 °F 97% 29.78 in 5.0 mi SSW 10.4 mph - 0.20 in Rain Light Rain
1:07 AM 48.9 °F - 46.9 °F 93% 29.77 in 4.0 mi SSW 12.7 mph - 0.02 in Rain Light Rain
1:11 AM 48.9 °F - 46.9 °F 93% 29.77 in 4.0 mi SSW 11.5 mph - 0.02 in Rain Light Rain
1:54 AM 48.9 °F - 46.9 °F 93% 29.76 in 4.0 mi SSW 13.8 mph - 0.07 in Rain Light Rain
2:05 AM 48.0 °F - 46.9 °F 96% 29.75 in 2.5 mi SW 11.5 mph - 0.04 in Rain Rain
2:38 AM 48.0 °F - 46.9 °F 96% 29.74 in 2.0 mi West 10.4 mph - 0.18 in Rain Heavy Rain
2:46 AM 46.0 °F 40.6 °F 44.1 °F 93% 29.75 in 1.8 mi West 11.5 mph - 0.23 in Rain Heavy Rain
2:54 AM 45.0 °F 39.7 °F 44.1 °F 97% 29.75 in 1.5 mi West 10.4 mph - 0.30 in Rain Heavy Rain
3:01 AM 45.0 °F 41.8 °F 44.1 °F 97% 29.75 in 3.0 mi WSW 5.8 mph - 0.02 in Rain Light Rain
3:10 AM 45.0 °F 40.6 °F 43.0 °F 93% 29.74 in 4.0 mi West 8.1 mph - 0.04 in Rain Rain
3:54 AM 42.1 °F 38.4 °F 39.9 °F 92% 29.75 in 6.0 mi SW 5.8 mph - 0.09 in Rain Light Rain
4:54 AM 41.0 °F 38.0 °F 39.2 °F 93% 29.71 in 3.0 mi SW 4.6 mph - N/A Rain Rain
5:34 AM 41.0 °F 36.4 °F 39.0 °F 93% 29.71 in 4.0 mi SSW 6.9 mph - 0.09 in Rain Rain
5:54 AM 41.0 °F 36.4 °F 39.0 °F 93% 29.73 in 4.0 mi SW 6.9 mph - 0.15 in Rain Rain
6:54 AM 39.2 °F 33.6 °F 37.4 °F 93% 29.74 in 7.0 mi SSW 8.1 mph - N/A Rain Light Rain
7:23 AM 39.0 °F 33.4 °F 37.9 °F 96% 29.74 in 10.0 mi South 8.1 mph - 0.03 in Rain Light Rain
7:54 AM 39.0 °F 34.0 °F 37.9 °F 96% 29.75 in 10.0 mi South 6.9 mph - 0.03 in   Overcast
8:54 AM 39.9 °F 33.4 °F 37.9 °F 93% 29.77 in 10.0 mi SSW 10.4 mph - N/A   Overcast
9:45 AM 39.9 °F 33.9 °F 37.9 °F 93% 29.78 in 10.0 mi SSW 9.2 mph - N/A   Overcast
9:54 AM 39.9 °F 32.9 °F 39.0 °F 97% 29.79 in 10.0 mi South 11.5 mph - N/A   Overcast
10:30 AM 39.9 °F 32.5 °F 39.0 °F 97% 29.80 in 10.0 mi SSW 12.7 mph - N/A   Overcast
10:54 AM 41.0 °F 33.9 °F 39.0 °F 93% 29.81 in 10.0 mi SSW 12.7 mph - N/A   Overcast
11:54 AM 41.0 °F 34.3 °F 39.0 °F 93% 29.81 in 10.0 mi SSW 11.5 mph - 0.00 in   Overcast
12:27 PM 39.9 °F 32.9 °F 39.0 °F 97% 29.81 in 10.0 mi South 11.5 mph - 0.00 in   Overcast
12:49 PM 41.0 °F 33.9 °F 39.2 °F 93% 29.81 in 10.0 mi SSW 12.7 mph - 0.00 in   Mostly Cloudy
12:54 PM 41.0 °F 33.9 °F 39.0 °F 93% 29.81 in 10.0 mi SSW 12.7 mph - 0.00 in   Mostly Cloudy
1:54 PM 39.9 °F 33.9 °F 37.0 °F 89% 29.84 in 10.0 mi SSW 9.2 mph - 0.03 in   Overcast
2:54 PM 39.9 °F 33.9 °F 37.0 °F 89% 29.86 in 5.0 mi SW 9.2 mph - 0.00 in Rain Light Rain
3:09 PM 39.0 °F 32.8 °F 37.0 °F 93% 29.86 in 10.0 mi SSW 9.2 mph - 0.01 in   Scattered Clouds
3:54 PM 39.9 °F 33.9 °F 37.9 °F 93% 29.88 in 10.0 mi SSW 9.2 mph - 0.01 in   Scattered Clouds
4:54 PM 39.0 °F 32.8 °F 34.0 °F 82% 29.89 in 10.0 mi SW 9.2 mph - N/A   Scattered Clouds
5:54 PM 35.1 °F 29.3 °F 34.0 °F 96% 29.91 in 10.0 mi South 6.9 mph - N/A   Partly Cloudy
6:54 PM 37.0 °F 30.4 °F 35.1 °F 93% 29.93 in 6.0 mi SSW 9.2 mph - 0.00 in Rain Light Rain
7:54 PM 35.1 °F 27.9 °F 34.0 °F 96% 29.93 in 10.0 mi SSW 9.2 mph - 0.00 in   Partly Cloudy
8:54 PM 35.1 °F 28.6 °F 33.1 °F 92% 29.94 in 10.0 mi SW 8.1 mph - N/A   Clear
9:45 PM 34.0 °F 29.8 °F 33.1 °F 96% 29.95 in 10.0 mi SSW 4.6 mph - N/A   Scattered Clouds
9:54 PM 33.8 °F 29.6 °F 33.8 °F 100% 29.96 in 9.0 mi SW 4.6 mph - N/A   Mostly Cloudy
10:01 PM 34.0 °F 29.8 °F 33.1 °F 96% 29.96 in 9.0 mi WSW 4.6 mph - N/A   Mostly Cloudy
10:35 PM 34.0 °F 27.2 °F 34.0 °F 100% 29.96 in 6.0 mi South 8.1 mph - N/A   Overcast
10:43 PM 33.8 °F 27.0 °F 33.8 °F 100% 29.96 in 9.0 mi SSW 8.1 mph - N/A   Scattered Clouds
10:54 PM 34.0 °F 27.2 °F 33.1 °F 96% 29.97 in 8.0 mi South 8.1 mph - N/A   Partly Cloudy
11:54 PM 33.1 °F 26.1 °F 32.0 °F 96% 29.96 in 9.0 mi SW 8.1 mph - N/A   Clear